FW4608 Weather Reports


time (UTC)temp
C
wind
direction
speed
KPH
gust
KPH
rain 1hr
cm
rain 24hr
cm
rain mn
cm
humidity
%
barometer
mb
20260510152524 25 274 0.0 1.6 0.03 0.43 0.03 92 1016.7
20260510152020 25 228 0.0 6.4 0.03 0.43 0.03 93 1016.8
20260510151533 24 256 0.0 6.4 0.03 0.43 0.03 93 1016.8
20260510151015 25 266 0.0 3.2 0.00 0.41 0.00 94 1016.9
20260510150614 24 235 0.0 3.2 0.00 0.41 0.00 95 1016.8
20260510150007 24 243 0.0 1.6 0.00 0.41 0.00 95 1016.9
20260510145508 23 199 0.0 3.2 0.00 0.41 0.00 95 1016.9
20260510145007 23 235 0.0 3.2 0.00 0.41 0.00 95 1016.8
20260510144521 23 242 0.0 3.2 0.00 0.41 0.00 95 1016.7
20260510144054 23 220 0.0 3.2 0.00 0.41 0.00 95 1016.6
20260510144003 23 222 0.0 3.2 0.00 0.41 0.00 95 1016.7
20260510143556 23 216 0.0 1.6 0.00 0.41 0.00 95 1016.7
20260510143058 23 243 0.0 3.2 0.00 0.41 0.00 95 1016.6
20260510142553 23 251 0.0 1.6 0.00 0.41 0.00 95 1016.7
20260510142051 23 233 0.0 1.6 0.00 0.41 0.00 95 1016.5
20260510141552 23 233 0.0 1.6 0.00 0.41 0.00 95 1016.5
20260510141008 23 198 0.0 1.6 0.00 0.41 0.00 95 1016.6
20260510140557 23 160 0.0 1.6 0.00 0.41 0.00 95 1016.6
20260510140501 23 235 0.0 1.6 0.00 0.41 0.00 95 1016.6
20260510140058 23 300 0.0 1.6 0.00 0.41 0.00 95 1016.6
20260510135603 23 277 0.0 1.6 0.00 0.41 0.00 96 1016.5
20260510135102 23 187 0.0 1.6 0.00 0.41 0.00 96 1016.4
20260510134553 23 140 0.0 4.8 0.00 0.41 0.00 96 1016.4
20260510134053 23 243 0.0 4.8 0.00 0.41 0.00 96 1016.4
20260510133546 23 223 0.0 4.8 0.00 0.41 0.00 96 1016.4
20260510133047 22 241 0.0 4.8 0.00 0.41 0.00 96 1016.4
20260510132544 22 240 0.0 1.6 0.00 0.41 0.00 96 1016.3
20260510132043 22 240 0.0 1.6 0.00 0.41 0.00 96 1016.3
20260510131541 22 250 0.0 1.6 0.00 0.41 0.00 96 1016.2
20260510131142 22 250 0.0 1.6 0.00 0.41 0.00 96 1016.1
20260510130529 22 270 0.0 1.6 0.00 0.41 0.00 96 1016.0
20260510130031 22 270 0.0 3.2 0.00 0.41 0.00 96 1015.9
20260510125623 23 239 0.0 3.2 0.00 0.41 0.00 96 1016.0
20260510125023 23 221 0.0 0.0 0.00 0.41 0.00 96 1015.8
20260510124520 22 222 0.0 1.6 0.00 0.41 0.00 96 1015.7
20260510124015 22 347 0.0 1.6 0.00 0.41 0.00 96 1015.7
20260510123515 22 347 0.0 1.6 0.00 0.41 0.00 96 1015.6
20260510123003 22 347 0.0 0.0 0.00 0.41 0.00 96 1015.5
20260510122553 22 347 0.0 0.0 0.00 0.41 0.00 96 1015.5
20260510122049 22 347 0.0 0.0 0.00 0.41 0.00 96 1015.5
20260510121549 21 347 0.0 0.0 0.00 0.41 0.00 96 1015.5
20260510121048 21 347 0.0 0.0 0.00 0.41 0.00 96 1015.4
20260510120546 21 347 0.0 0.0 0.00 0.41 0.00 96 1015.3
20260510120042 21 347 0.0 0.0 0.00 0.41 0.00 96 1015.2
20260510115541 21 347 0.0 0.0 0.00 0.41 0.00 96 1015.1
20260510115041 21 347 0.0 0.0 0.00 0.41 0.00 96 1015.1
20260510114538 21 347 0.0 0.0 0.00 0.41 0.00 96 1015.1
20260510114037 21 347 0.0 0.0 0.00 0.41 0.00 96 1015.0
20260510113536 21 347 0.0 0.0 0.00 0.41 0.00 96 1015.0
20260510113034 21 347 0.0 0.0 0.00 0.41 0.00 96 1014.9
20260510112538 21 347 0.0 0.0 0.00 0.41 0.00 96 1014.9
20260510112035 21 347 0.0 0.0 0.00 0.41 0.00 95 1014.6
20260510111535 21 347 0.0 0.0 0.00 0.41 0.00 95 1014.7
20260510111031 20 347 0.0 0.0 0.00 0.41 0.00 95 1014.6
20260510110530 20 347 0.0 0.0 0.00 0.41 0.00 95 1014.6
20260510110032 20 347 0.0 0.0 0.00 0.41 0.00 95 1014.4
20260510105527 20 347 0.0 0.0 0.00 0.41 0.00 95 1014.3
20260510105029 20 347 0.0 0.0 0.00 0.41 0.00 95 1014.3
20260510104536 20 347 0.0 0.0 0.00 0.41 0.00 95 1014.2
20260510104025 20 347 0.0 0.0 0.00 0.41 0.00 95 1014.3
20260510103632 20 347 0.0 0.0 0.00 0.41 0.00 95 1014.3
20260510103023 20 347 0.0 0.0 0.00 0.41 0.00 95 1014.2
20260510102523 20 347 0.0 0.0 0.00 0.41 0.00 95 1014.1
20260510102026 20 347 0.0 0.0 0.00 0.41 0.00 95 1014.0
20260510101524 20 347 0.0 0.0 0.00 0.41 0.00 95 1014.1
20260510101023 20 347 0.0 0.0 0.00 0.41 0.00 95 1014.1
20260510100523 21 347 0.0 0.0 0.00 0.41 0.00 95 1014.0
20260510100020 21 347 0.0 0.0 0.00 0.41 0.00 95 1014.0
20260510095531 21 347 0.0 0.0 0.00 0.41 0.00 95 1013.9
20260510095021 21 347 0.0 0.0 0.00 0.41 0.00 95 1013.9
20260510094519 20 347 0.0 0.0 0.00 0.41 0.00 95 1013.8
20260510094017 20 347 0.0 0.0 0.00 0.41 0.00 95 1013.8
20260510093519 21 347 0.0 0.0 0.00 0.41 0.00 95 1013.6
20260510093016 21 347 0.0 0.0 0.00 0.41 0.00 95 1013.6
20260510092516 21 347 0.0 0.0 0.00 0.41 0.00 95 1013.5
20260510092018 21 347 0.0 0.0 0.00 0.41 0.00 95 1013.6
20260510091016 21 347 0.0 0.0 0.00 0.41 0.00 95 1013.4
20260510090115 21 347 0.0 0.0 0.00 0.41 0.00 95 1013.3
20260510085511 21 347 0.0 0.0 0.00 0.41 0.00 95 1013.2
20260510085010 21 347 0.0 0.0 0.00 0.41 0.00 95 1013.2
20260510084525 21 347 0.0 0.0 0.00 0.41 0.00 95 1013.1
20260510084010 21 347 0.0 0.0 0.00 0.41 0.00 95 1013.1
20260510083520 21 347 0.0 0.0 0.00 0.41 0.00 95 1013.0
20260510083012 21 347 0.0 0.0 0.00 0.41 0.00 95 1013.0
20260510082506 21 347 0.0 0.0 0.00 0.41 0.00 95 1013.0
20260510082059 21 347 0.0 0.0 0.00 0.41 0.00 95 1012.9
20260510082001 21 347 0.0 0.0 0.00 0.41 0.00 95 1012.9
20260510081618 21 347 0.0 0.0 0.00 0.41 0.00 95 1013.0
20260510081501 21 347 0.0 0.0 0.00 0.41 0.00 95 1013.0
20260510081101 21 347 0.0 0.0 0.00 0.41 0.00 95 1013.0
20260510080558 21 347 0.0 0.0 0.00 0.41 0.00 95 1013.0
20260510080105 21 347 0.0 0.0 0.00 0.41 0.00 95 1013.2
20260510075558 21 347 0.0 0.0 0.00 0.41 0.00 95 1013.1
20260510075056 21 347 0.0 0.0 0.00 0.41 0.00 95 1013.0
20260510074556 21 347 0.0 0.0 0.00 0.41 0.00 95 1013.0
20260510074058 21 347 0.0 0.0 0.00 0.41 0.00 95 1013.0
20260510073556 20 347 0.0 0.0 0.00 0.41 0.00 95 1013.0
20260510073101 21 347 0.0 0.0 0.00 0.41 0.00 95 1012.9
20260510072552 20 347 0.0 0.0 0.00 0.41 0.00 95 1012.9
20260510072052 21 347 0.0 0.0 0.00 0.41 0.00 95 1012.9
20260510071552 21 347 0.0 0.0 0.00 0.41 0.00 95 1012.7
20260510071051 21 347 0.0 0.0 0.00 0.41 0.00 95 1012.7
20260510070548 21 347 0.0 0.0 0.00 0.41 0.00 95 1012.6
20260510070047 21 347 0.0 0.0 0.00 0.41 0.00 95 1012.7
20260510065548 21 347 0.0 0.0 0.00 0.41 0.00 95 1012.7
20260510065045 21 347 0.0 0.0 0.00 0.41 0.00 95 1012.8
20260510064551 21 347 0.0 0.0 0.00 0.41 0.00 95 1012.9
20260510064044 21 347 0.0 0.0 0.00 0.41 0.00 95 1012.9
20260510063541 21 347 0.0 0.0 0.00 0.41 0.00 95 1013.1
20260510063040 21 347 0.0 0.0 0.00 0.41 0.00 95 1013.0
20260510062547 21 347 0.0 1.6 0.00 0.41 0.00 95 1013.0
20260510062039 21 347 0.0 1.6 0.00 0.41 0.00 95 1013.1
20260510061540 21 347 0.0 1.6 0.00 0.41 0.00 95 1013.1
20260510061037 21 92 0.0 0.0 0.00 0.41 0.00 95 1013.1
20260510060537 21 92 0.0 0.0 0.00 0.41 0.00 95 1013.3
20260510060039 21 92 0.0 0.0 0.00 0.41 0.00 95 1013.3
20260510055533 21 92 0.0 0.0 0.00 0.41 0.00 95 1013.4
20260510055030 21 92 0.0 0.0 0.00 0.41 0.00 95 1013.5
20260510054529 21 92 0.0 0.0 0.00 0.41 0.00 95 1013.5
20260510054026 21 92 0.0 0.0 0.00 0.41 0.00 95 1013.6
20260510053534 21 92 0.0 0.0 0.00 0.41 0.00 95 1013.6
20260510053030 21 92 0.0 0.0 0.00 0.41 0.00 95 1013.7
20260510052537 21 92 0.0 0.0 0.00 0.41 0.00 95 1013.8
20260510052024 21 92 0.0 0.0 0.00 0.41 0.00 95 1013.9
20260510051519 21 92 0.0 0.0 0.00 0.41 0.00 95 1014.0
20260510051018 21 92 0.0 0.0 0.00 0.41 0.00 95 1014.2
20260510050515 21 92 0.0 0.0 0.00 0.41 0.00 95 1014.3
20260510050016 21 92 0.0 0.0 0.00 0.41 0.00 95 1014.4
20260510045516 21 92 0.0 0.0 0.00 0.43 0.00 95 1014.4
20260510045015 21 92 0.0 0.0 0.00 0.43 0.00 95 1014.5
20260510044513 21 92 0.0 0.0 0.00 0.43 0.00 95 1014.4
20260510044016 21 92 0.0 0.0 0.00 0.43 0.00 95 1014.4
20260510043514 21 92 0.0 0.0 0.00 0.43 0.00 95 1014.4
20260510043011 21 92 0.0 0.0 0.00 0.43 0.00 95 1014.4
20260510042511 21 92 0.0 0.0 0.00 0.43 0.00 95 1014.4
20260510042010 21 92 0.0 0.0 0.00 0.43 0.00 95 1014.4
20260510041615 21 92 0.0 0.0 0.00 0.43 0.00 95 1014.5
20260510041013 21 92 0.0 0.0 0.00 0.43 0.00 95 1014.4
20260510040505 21 92 0.0 0.0 0.00 0.43 0.00 95 1014.4
20260510040005 21 92 0.0 0.0 0.00 0.48 0.43 95 1014.5
20260510035502 21 92 0.0 0.0 0.00 0.48 0.43 95 1014.4
20260510035002 21 92 0.0 0.0 0.00 0.48 0.43 95 1014.4
20260510034503 21 92 0.0 0.0 0.00 0.48 0.43 95 1014.4
20260510034001 21 92 0.0 0.0 0.00 0.48 0.43 95 1014.5
20260510033504 21 92 0.0 0.0 0.00 0.48 0.43 95 1014.5
20260510033103 21 92 0.0 0.0 0.00 0.48 0.43 95 1014.4
20260510032601 21 92 0.0 1.6 0.00 0.48 0.43 95 1014.6
20260510032059 21 92 0.0 1.6 0.00 0.48 0.43 95 1014.7
20260510031658 21 309 0.0 0.0 0.00 0.48 0.43 95 1014.6
20260510031058 21 309 0.0 0.0 0.00 0.48 0.43 95 1014.7
20260510030556 21 309 0.0 0.0 0.00 0.48 0.43 95 1014.6
20260510030058 21 309 0.0 0.0 0.00 0.48 0.43 95 1014.6
20260510030004 21 309 0.0 0.0 0.00 0.48 0.43 95 1014.6
20260510025557 21 309 0.0 0.0 0.00 0.48 0.43 95 1014.4
20260510025055 21 309 0.0 0.0 0.00 0.48 0.43 95 1014.3
20260510024554 21 309 0.0 0.0 0.00 0.48 0.43 95 1014.4
20260510024156 21 309 0.0 0.0 0.00 0.48 0.43 95 1014.4
20260510023556 21 309 0.0 0.0 0.00 0.48 0.43 95 1014.2
20260510023052 21 309 0.0 0.0 0.00 0.48 0.43 95 1014.1
20260510022551 21 309 0.0 0.0 0.00 0.48 0.43 95 1013.9
20260510022050 21 309 0.0 0.0 0.00 0.48 0.43 95 1013.9
20260510021552 21 309 0.0 0.0 0.00 0.48 0.43 95 1013.7
20260510021051 21 309 0.0 0.0 0.00 0.48 0.43 95 1013.8
20260510020659 21 309 0.0 0.0 0.00 0.48 0.43 95 1013.9
20260510020047 21 309 0.0 0.0 0.00 0.48 0.43 95 1013.7
20260510015547 21 309 0.0 0.0 0.00 0.48 0.43 95 1013.5
20260510015047 21 309 0.0 0.0 0.00 0.48 0.43 95 1013.4
20260510014546 21 309 0.0 0.0 0.00 0.48 0.43 95 1013.4
20260510014045 21 309 0.0 0.0 0.00 0.48 0.43 95 1013.3
20260510013547 21 309 0.0 0.0 0.00 0.48 0.43 95 1013.1
20260510013049 21 309 0.0 0.0 0.00 0.48 0.43 95 1013.3
20260510012547 21 309 0.0 0.0 0.00 0.48 0.43 95 1013.1
20260510012142 21 309 0.0 0.0 0.00 0.48 0.43 95 1013.2
20260510011542 21 309 0.0 0.0 0.00 0.48 0.43 95 1013.2
20260510011046 21 309 0.0 0.0 0.03 0.48 0.43 95 1013.0
20260510010537 21 309 0.0 0.0 0.03 0.48 0.43 95 1013.0
20260510010037 21 309 0.0 0.0 0.03 0.48 0.43 95 1013.1
20260510005537 21 309 0.0 0.0 0.05 0.48 0.43 95 1013.1
20260510005039 21 309 0.0 0.0 0.05 0.48 0.43 95 1012.9
20260510004533 21 309 0.0 0.0 0.05 0.48 0.43 95 1013.1
20260510004037 21 309 0.0 0.0 0.05 0.48 0.43 95 1012.9
20260510003537 21 309 0.0 0.0 0.05 0.48 0.43 95 1012.9
20260510003033 21 309 0.0 0.0 0.05 0.48 0.43 95 1013.1
20260510002532 21 309 0.0 0.0 0.05 0.48 0.43 95 1013.2
20260510002035 21 309 0.0 0.0 0.05 0.48 0.43 95 1013.3
20260510001531 21 309 0.0 0.0 0.05 0.48 0.43 95 1013.3
20260510001030 21 309 0.0 0.0 0.03 0.46 0.41 95 1013.5
20260510000531 21 309 0.0 0.0 0.03 0.46 0.41 95 1013.5
20260510000029 21 309 0.0 0.0 0.03 0.46 0.41 95 1013.4
20260509235531 21 309 0.0 0.0 0.00 0.43 0.38 94 1013.5
20260509235028 21 309 0.0 0.0 0.00 0.43 0.38 94 1013.5
20260509234536 21 309 0.0 1.6 0.00 0.43 0.38 94 1013.5
20260509234027 21 309 0.0 1.6 0.00 0.43 0.38 94 1013.3
20260509233529 22 343 0.0 0.0 0.00 0.43 0.38 94 1013.2
20260509233025 21 343 0.0 0.0 0.00 0.43 0.38 94 1013.2
20260509232524 22 343 0.0 0.0 0.00 0.43 0.38 94 1013.4
20260509232027 22 342 0.0 0.0 0.00 0.43 0.38 94 1013.2
20260509231528 22 343 0.0 0.0 0.00 0.43 0.38 94 1013.2
20260509231021 22 342 0.0 1.6 0.00 0.43 0.38 94 1013.4
20260509230520 22 343 0.0 1.6 0.00 0.43 0.38 94 1013.2
20260509230035 22 345 0.0 3.2 0.03 0.43 0.38 94 1013.2
20260509225518 22 321 0.0 3.2 0.03 0.43 0.38 94 1013.1
20260509225017 22 337 0.0 3.2 0.05 0.43 0.38 94 1013.1
20260509224518 22 337 0.0 3.2 0.05 0.43 0.38 94 1013.1
20260509224015 22 170 0.0 1.6 0.05 0.43 0.38 94 1013.1
20260509223522 22 356 0.0 1.6 0.05 0.43 0.38 94 1013.1
20260509223019 22 357 0.0 1.6 0.05 0.43 0.38 94 1013.0
20260509222513 22 357 0.0 1.6 0.05 0.43 0.38 94 1013.1
20260509222017 22 358 0.0 1.6 0.05 0.43 0.38 94 1013.1
20260509221513 22 357 0.0 1.6 0.05 0.43 0.38 94 1013.1
20260509221015 22 255 0.0 1.6 0.05 0.43 0.38 94 1013.0
20260509220511 22 255 0.0 1.6 0.03 0.41 0.36 94 1013.0
20260509220014 22 255 0.0 3.2 0.03 0.41 0.36 94 1013.1
20260509215516 22 324 0.0 3.2 0.03 0.41 0.36 94 1013.0
20260509215011 22 146 0.0 1.6 0.00 0.38 0.33 94 1013.0
20260509214510 22 208 0.0 1.6 0.00 0.38 0.33 94 1012.9
20260509214017 23 334 0.0 1.6 0.00 0.38 0.33 94 1012.7
20260509213510 23 155 0.0 0.0 0.00 0.38 0.33 94 1012.8
20260509213008 23 259 0.0 1.6 0.00 0.38 0.33 93 1012.9
20260509212608 23 259 0.0 1.6 0.00 0.38 0.33 93 1012.8
20260509212007 23 108 0.0 1.6 0.00 0.38 0.33 94 1012.8
20260509211508 23 252 0.0 3.2 0.00 0.38 0.33 94 1012.9
20260509211007 23 326 0.0 3.2 0.00 0.38 0.33 94 1012.9
20260509210506 23 235 0.0 0.0 0.00 0.38 0.33 94 1012.8
20260509210004 23 235 0.0 1.6 0.00 0.38 0.33 94 1012.7
20260509205503 23 235 0.0 3.2 0.00 0.38 0.33 93 1012.6
20260509205005 23 233 0.0 3.2 0.00 0.38 0.33 93 1012.7
20260509204504 23 205 0.0 1.6 0.00 0.38 0.33 93 1012.6
20260509204002 23 269 0.0 1.6 0.18 0.38 0.33 93 1012.6
20260509203601 23 269 0.0 1.6 0.23 0.38 0.33 93 1012.7
20260509203100 23 282 0.0 1.6 0.23 0.38 0.33 93 1012.7
20260509203008 23 239 0.0 0.0 0.23 0.38 0.33 93 1012.7
20260509202502 23 225 0.0 0.0 0.23 0.38 0.33 93 1012.6
20260509202102 23 225 0.0 0.0 0.23 0.38 0.33 93 1012.6
20260509201600 23 225 0.0 0.0 0.25 0.38 0.33 93 1012.5
20260509201001 23 229 0.0 0.0 0.25 0.38 0.33 93 1012.6
20260509200557 23 229 0.0 1.6 0.25 0.38 0.33 93 1012.5
20260509200108 23 229 0.0 1.6 0.25 0.38 0.33 93 1012.7
20260509200003 23 229 0.0 1.6 0.25 0.38 0.33 92 1012.7
20260509195558 23 245 0.0 1.6 0.25 0.38 0.33 92 1012.5
20260509195055 23 311 0.0 3.2 0.28 0.38 0.33 91 1012.5
20260509194555 24 228 0.0 3.2 0.28 0.38 0.33 91 1012.4
20260509194057 24 299 0.0 1.6 0.15 0.25 0.20 90 1012.8
20260509193607 25 258 0.0 1.6 0.08 0.15 0.10 90 1012.7
20260509192558 25 260 0.0 1.6 0.08 0.15 0.10 90 1012.7
20260509192058 25 266 0.0 1.6 0.08 0.15 0.10 90 1012.7
20260509191550 25 266 0.0 1.6 0.05 0.13 0.08 90 1012.7
20260509191053 25 266 0.0 0.0 0.05 0.13 0.08 90 1012.6
20260509190546 25 265 0.0 0.0 0.05 0.13 0.08 90 1012.5
20260509190056 25 269 0.0 0.0 0.05 0.13 0.08 90 1012.6
20260509185548 25 269 0.0 0.0 0.05 0.13 0.08 89 1012.7
20260509184614 25 269 0.0 0.0 0.03 0.10 0.05 87 1012.6
20260509184045 26 269 0.0 0.0 0.03 0.10 0.05 87 1012.7
20260509183547 26 269 0.0 3.2 0.00 0.08 0.03 86 1012.7
20260509183042 26 256 0.0 3.2 0.00 0.08 0.03 85 1012.8
20260509182546 26 265 0.0 1.6 0.00 0.08 0.03 85 1013.0
20260509182044 26 266 0.0 4.8 0.00 0.08 0.03 84 1012.7
20260509181547 26 248 0.0 4.8 0.00 0.08 0.03 83 1013.0
20260509181040 26 255 0.0 3.2 0.00 0.08 0.03 83 1013.0
20260509180539 27 171 0.0 3.2 0.00 0.08 0.03 82 1013.0
20260509180037 27 260 0.0 3.2 0.00 0.08 0.03 82 1013.0
20260509175541 27 236 0.0 4.8 0.00 0.08 0.03 82 1013.0
20260509175036 27 242 1.6 4.8 0.00 0.08 0.03 83 1013.0
20260509174538 27 231 0.0 4.8 0.00 0.08 0.03 81 1013.0
20260509174035 27 321 0.0 4.8 0.00 0.08 0.03 83 1013.1
20260509173536 27 252 1.6 4.8 0.00 0.08 0.03 82 1013.1
20260509173036 27 237 0.0 4.8 0.00 0.08 0.03 84 1013.1
20260509172531 27 274 0.0 4.8 0.00 0.08 0.03 84 1013.1
20260509172031 27 228 0.0 4.8 0.00 0.08 0.03 84 1013.1
20260509171532 27 101 0.0 3.2 0.00 0.08 0.03 83 1013.0
20260509171026 27 248 0.0 4.8 0.00 0.08 0.03 84 1013.0
20260509170525 26 292 0.0 4.8 0.00 0.08 0.03 84 1013.2
20260509170029 26 230 0.0 4.8 0.00 0.08 0.03 84 1013.3
20260509165523 26 285 0.0 1.6 0.00 0.08 0.03 84 1013.2
20260509165136 27 241 0.0 1.6 0.00 0.08 0.03 84 1013.3
20260509164518 27 172 0.0 0.0 0.00 0.08 0.03 84 1013.3
20260509164019 26 159 0.0 1.6 0.00 0.08 0.03 85 1013.4
20260509163521 26 113 0.0 1.6 0.00 0.08 0.03 85 1013.5
20260509163014 26 112 0.0 1.6 0.00 0.08 0.03 86 1013.6
20260509162514 26 244 0.0 3.2 0.00 0.08 0.03 85 1013.5
20260509162015 26 185 0.0 3.2 0.00 0.08 0.03 86 1013.4
20260509161510 25 222 0.0 3.2 0.00 0.08 0.03 86 1013.6
20260509161009 25 115 0.0 3.2 0.00 0.08 0.03 86 1013.5
20260509160509 25 244 0.0 3.2 0.00 0.08 0.03 86 1013.6
20260509160010 26 247 0.0 1.6 0.00 0.08 0.03 87 1013.7
20260509155513 25 242 0.0 3.2 0.00 0.08 0.03 86 1013.5
20260509155007 25 259 0.0 4.8 0.00 0.08 0.03 86 1013.6
20260509154506 25 255 0.0 4.8 0.00 0.08 0.03 86 1013.7
20260509154008 26 214 0.0 1.6 0.00 0.08 0.03 87 1013.6
20260509153604 25 165 0.0 1.6 0.00 0.08 0.03 86 1013.5